Location: Woodhurst
(52.3667°N, 0.0667°W)
Time: 15:07:26
(UTC+00:00)

Cosmos 1346 Rocket - Pass Details

Date: 19 May 2025
Orbit: 485 x 499 km, 81.2° (Epoch: 18 June)

Event Time Altitude Azimuth Distance (km) Brightness Sun altitude
Rises 21:05:19 0° 344° (NNW) 2,590 7.6 -8.6°
Reaches altitude 10° 21:07:28 10° 342° (NNW) 1,699 6.6 -8.8°
Maximum altitude 21:11:09 64° 261° (W) 549 2.9 -9.2°
Drops below altitude 10° 21:14:47 10° 179° (S) 1,676 4.8 -9.6°
Enters shadow 21:15:07 - 179° (S) 1,812 5.0 -9.6°
